Regional Weather Roundup
Issued by NWS Charleston, SC

Current Version | Previous Version | Graphics & Text | Print | Product List | Glossary On
Versions: 1 2 3 4 5 6 7 8 9 10 11 12 13 14 15 16 17 18 19 20 21 22 23 24 25 26 27 28 29 30 31 32 33 34 35 36 37 38 39 40 41 42 43 44 45 46 47 48 49 50
029
ASUS42 KCHS 232012
RWRCHS

REGIONAL WEATHER ROUNDUP
NATIONAL WEATHER SERVICE CHARLESTON SC
400 PM EDT WED AUG 23 2017

NOTE: "FAIR" INDICATES FEW OR NO CLOUDS BELOW 12,000 FEET WITH NO
SIGNIFICANT WEATHER AND/OR OBSTRUCTIONS TO VISIBILITY.

NOT ALL STATIONS ARE QUALITY CONTROLLED. USE DATA WITH CAUTION...
ESPECIALLY DEWPOINT OBSERVATIONS.

SCZ027-030-031-034>040-042>050-232100-
...SOUTHEAST SOUTH CAROLINA...

CITY           SKY/WX    TMP DP  RH WIND       PRES   REMARKS
N CHARLESTON   MOSUNNY   91  75  59 SW10      29.85F HX 101
WATERFRONT PRK   N/A     88  78  72 S13       29.72F HX 101
JOHNS ISLAND   FAIR      90  79  70 S13       29.86F HX 105
PINOPOLIS        N/A     91  75  59 SW7       29.78F HX 102
MONCKS CORNER  FAIR      91  72  52 SW9       29.85F HX  98
SUMMERVILLE    FAIR      93  73  52 SW3       29.86F HX 102
BEAUFORT MCAS  PTSUNNY   93  80  65 S7        29.86F HX 112
BEAUFORT ARPT  FAIR      90  77  66 S9        29.86F HX 102
HILTON HEAD IS MOSUNNY   90  79  70 S14       29.88F HX 105
WALTERBORO     MOCLDY    91  73  55 S9        29.86F HX 100
ALLENDALE      NOT AVBL

...SOUTHERN MIDLANDS AND PEE DEE...

CITY           SKY/WX    TMP DP  RH WIND       PRES   REMARKS
GEORGETOWN     MOCLDY    90  79  70 S10       29.86F HX 105
KINGSTREE      FAIR      91  72  52 S7        29.83F HX  98
ORANGEBURG     PTSUNNY   96  70  42 SW15      29.83F HX 102
BARNWELL       FAIR      99  73  44 W7        29.84F HX 109
AIKEN          MOCLDY    91  72  52 SW9       29.89F HX  98
MANNING        FAIR      93  72  49 CALM      29.83F HX 100
COLUMBIA       MOSUNNY   95  73  48 VRB3      29.82F HX 104
SUMTER         PTSUNNY   95  69  41 SW8G21    29.80F HX 101
FLORENCE       MOSUNNY   94  73  50 SW8G20    29.82F HX 103
MYRTLE BEACH   MOSUNNY   88  79  74 S14G21    29.85  HX 102
N MYRTLE BEACH SUNNY     87  78  74 S16       29.84F HX 100

$$

GAZ063-065-086>088-099>101-113>116-118-119-134>141-150-232100-
...SOUTHEAST GEORGIA...

CITY           SKY/WX    TMP DP  RH WIND       PRES   REMARKS
SAVANNAH ARPT  MOSUNNY   94  74  52 SW5       29.86F HX 104
HUNTER AAF     NOT AVBL
FORT STEWART   PTSUNNY   93  72  51 SE5       29.84F HX 101
STATESBORO     PTSUNNY   91  70  50 NW6       29.86F HX  95
SYLVANIA       CLOUDY    91  77  63 CALM      29.86F HX 104
CLAXTON        FAIR      96  73  47 CALM      29.86F HX 106

...CSRA...CENTRAL AND FAR SOUTHEAST GEORGIA...

CITY           SKY/WX    TMP DP  RH WIND       PRES   REMARKS
THOMSON        MOSUNNY   92  71  50 N12       29.92F HX  99
AUGUSTA-BUSH   MOSUNNY   96  73  47 SW8       29.84F HX 105
AUGUSTA-DANIEL PTSUNNY   95  67  39 W9        29.86F HX  99
SWAINSBORO     FAIR      95  70  43 NW5       29.87F HX 101
VIDALIA        CLOUDY    97  70  41 W7        29.86F HX 103
EASTMAN        FAIR      96  51  22 W8        29.89F HX  93
HAZLEHURST     FAIR      97  51  21 NW3       29.86F HX  94
ALMA           MOSUNNY   95  73  48 SW5       29.87F HX 104
WAYCROSS       CLOUDY    88  74  63 CALM      29.89F HX  97
JESUP          TSTM      81  72  74 N17G41    29.90R VSB 1/2
BAXLEY         PTSUNNY   91  70  49 CALM      29.87F HX  97
BRUNSWICK      PTSUNNY   90  73  58 SE12      29.88F HX  98
SAINT SIMONS   SUNNY     89  78  70 SE10      29.88F HX 103

$$

SCZ027-028-034-036>038-045-046-048>050-GAZ119-141-232100-
...LAKE AND SUPPLEMENTAL COASTAL OBSERVATIONS...

STATION/POSITION TIME  TEMP    WIND        PRES    WAVE   SWELL
                       AIR SEA DIR/SP/G            HT/PER HT/PER/DIR
                 (UTC) (F)     (DEG/KT/KT) (MB)    (FT/S) (FT/S/D)
WINYAH BAY       NOT AVBL
LAKE MURRAY      1920   91     210/  6/ 12 1009.5
ACE BASIN NERRS  1845   92        CALM     1012.0
FORT PULASKI     1942   88 87  210/  6/  9 1012.1F
SAPELO ISLAND    1900   93     150/  6     1012.0

$$

ANZ835-935-AMZ111-154-330-350-352-354-370-450-454-472-232100-
...C-MAN AND BUOY OBSERVATIONS...

STATION/POSITION TIME  TEMP    WIND        PRES    WAVE   SWELL
                       AIR SEA DIR/SP/G            HT/PER HT/PER/DIR
                 (UTC) (F)     (DEG/KT/KT) (MB)    (FT/S) (FT/S/D)
BUOY 41004       1950   84 85  210/ 12/ 16 1011.6F   4/ 9   3/120/ 9
BUOY 41008       1950   85 87  150/  8/ 10 1011.9F   3/10   3/110/10
FOLLY BEACH CMAN 1900   86     190/ 12/ 13 1012.9F
CAPERS NEARSHORE 1908   84 86  210/ 12/ 16 1011.9F
FRIPP NEARSHORE  1908   86     180/ 10/ 14 1012.2F


STATION/POSITION TIME  TEMP    WIND        PRES    WAVE   SWELL
                       AIR SEA DIR/SP/G            HT/PER HT/PER/DIR
                 (UTC) (F)     (DEG/KT/KT) (MB)    (FT/S) (FT/S/D)
5E ST. MARYS GA  1930      88                N/A     3/10
FRYING PAN BUOY  1950   83 84  220/ 14/ 16 1011.2F   4/ 9   2/120/ 9
BUOY 41025       1950   84 85  230/ 16/ 19 1010.6F   4/ 5   2/140/ 8
CAPE LOOKOUT NC  1900   84     220/ 10/ 14 1011.1F
BUOY 41002       1950   84 86  210/  6/  6 1013.3F   3/ 8   3/100/ 8
BUOY 41010       1950   83 85  130/ 16/ 19 1013.2F   3/ 9   3/100/ 9
ST AUGUSTINE FL  2000   84 85  110/  9/ 10 1013.0F


$$




USA.gov is the U.S. government's official web portal to all federal, state and local government web resources and services.